DW0564 Weather Reports


time (UTC)temp
F
wind
direction
speed
knots
gust
knots
rain 1hr
in
rain 24hr
in
rain mn
in
humidity
%
barometer
mb
20190423074702 56 299 5.2 9.6 0.00 0.84 0.13 85 1011.1
20190423071631 55 317 2.6 7.8 0.00 0.84 0.13 85 1011.2
20190423070120 55 305 2.6 7.0 0.00 0.84 0.13 85 1011.2
20190423064549 55 284 2.6 6.1 0.00 0.84 0.13 85 1011.2
20190423063107 55 334 2.6 5.2 0.00 0.84 0.13 85 1011.3
20190423061605 55 309 2.6 6.1 0.02 0.84 0.13 85 1011.6
20190423060136 55 325 2.6 5.2 0.04 0.84 0.13 84 1011.9
20190423054728 55 319 2.6 5.2 0.05 0.84 0.13 84 1012.0
20190423053111 55 298 2.6 5.2 0.08 0.84 0.13 84 1012.2
20190423051625 55 312 1.7 7.0 0.08 0.82 0.11 85 1012.3
20190423050106 55 334 1.7 5.2 0.09 0.80 0.09 84 1012.4
20190423044633 55 300 2.6 6.1 0.10 0.79 0.08 85 1012.6
20190423043336 55 346 3.5 7.0 0.08 0.76 0.05 85 1012.7
20190423041616 55 279 3.5 7.8 0.05 0.73 0.02 85 1012.8
20190423040138 56 331 2.6 5.2 0.03 0.71 0.00 86 1012.9
20190423034638 56 331 1.7 7.0 0.01 0.69 0.69 86 1012.9
20190423033105 56 321 2.6 8.7 0.00 0.68 0.68 85 1012.9
20190423031618 56 19 4.3 7.8 0.00 0.68 0.68 86 1013.0
20190423030148 56 311 3.5 8.7 0.00 0.68 0.68 86 1013.1
20190423024556 56 329 3.5 11.3 0.00 0.68 0.68 85 1013.1
20190423023126 56 335 8.7 13.9 0.00 0.68 0.68 86 1013.1
20190423020058 56 17 5.2 11.3 0.00 0.68 0.68 86 1013.1
20190423014544 56 348 5.2 12.2 0.00 0.68 0.68 86 1013.2
20190423013116 56 336 5.2 13.0 0.00 0.68 0.68 86 1013.3
20190423011539 56 17 7.0 13.0 0.00 0.68 0.68 86 1013.4
20190423010104 56 333 3.5 11.3 0.00 0.68 0.68 86 1013.3
20190423004626 55 38 5.2 10.4 0.00 0.68 0.68 86 1013.4
20190423003109 55 355 3.5 11.3 0.00 0.68 0.68 86 1013.3
20190423001557 55 9 5.2 10.4 0.00 0.68 0.68 85 1013.3
20190423000124 55 5 7.0 13.0 0.00 0.68 0.68 85 1013.3
20190422234623 55 5 3.5 7.8 0.01 0.68 0.68 85 1013.2
20190422233118 55 19 7.0 14.8 0.02 0.68 0.68 85 1013.2
20190422231631 55 9 6.1 12.2 0.02 0.68 0.68 85 1013.2
20190422230120 55 350 7.8 13.9 0.03 0.68 0.68 85 1013.2
20190422224635 55 330 7.8 13.9 0.02 0.67 0.67 85 1013.1
20190422223153 55 340 5.2 12.2 0.03 0.66 0.66 84 1013.0
20190422221543 55 319 5.2 11.3 0.11 0.66 0.66 84 1013.2
20190422220133 55 304 2.6 10.4 0.17 0.65 0.65 85 1013.8
20190422214619 56 24 4.3 10.4 0.25 0.65 0.65 84 1013.9
20190422213102 56 350 1.7 3.5 0.31 0.62 0.62 84 1014.2
20190422211629 56 323 1.7 4.3 0.38 0.55 0.55 85 1014.3
20190422204614 57 105 0.9 1.7 0.36 0.39 0.39 85 1014.6
20190422203113 57 105 0.9 2.6 0.28 0.31 0.31 85 1014.7
20190422201641 58 51 0.9 7.0 0.15 0.17 0.17 85 1014.5
20190422200132 59 172 3.5 5.2 0.03 0.05 0.05 84 1014.3
20190422194707 59 18 2.6 7.0 0.01 0.03 0.03 82 1013.5
20190422193157 59 5 6.1 12.2 0.00 0.02 0.02 83 1012.9
20190422191553 58 355 6.1 13.0 0.01 0.02 0.02 84 1013.2
20190422190132 58 81 6.1 13.9 0.01 0.02 0.02 85 1013.5
20190422184539 57 355 8.7 14.8 0.01 0.02 0.02 85 1013.8
20190422183128 58 346 7.8 14.8 0.01 0.02 0.02 85 1013.9
20190422181610 60 56 7.0 14.8 0.00 0.01 0.01 83 1014.2
20190422180127 60 55 5.2 14.8 0.00 0.01 0.01 82 1014.3
20190422174619 60 39 8.7 14.8 0.00 0.01 0.01 81 1013.9
20190422173111 60 31 7.8 20.9 0.00 0.01 0.01 80 1013.5
20190422171656 61 351 8.7 18.2 0.00 0.01 0.01 78 1013.8
20190422170112 62 42 8.7 17.4 0.00 0.01 0.01 75 1014.5
20190422164608 63 24 9.6 20.0 0.00 0.01 0.01 71 1014.5
20190422163111 64 15 10.4 17.4 0.00 0.01 0.01 73 1014.2
20190422161604 63 40 7.8 13.0 0.00 0.01 0.01 76 1014.2
20190422160159 63 9 6.1 13.0 0.00 0.01 0.01 76 1015.0
20190422154633 62 21 5.2 9.6 0.00 0.01 0.01 76 1015.1
20190422153231 62 31 3.5 5.2 0.00 0.01 0.01 77 1015.5
20190422151540 62 41 4.3 11.3 0.00 0.01 0.01 78 1015.6
20190422150147 62 44 3.5 9.6 0.00 0.01 0.01 79 1015.9
20190422144617 61 39 5.2 10.4 0.00 0.01 0.01 81 1015.8
20190422143133 60 55 4.3 7.8 0.00 0.01 0.01 83 1016.1
20190422141559 59 33 2.6 6.1 0.00 0.01 0.01 84 1016.4
20190422140115 58 5 2.6 5.2 0.00 0.01 0.01 86 1016.3
20190422134617 57 5 2.6 7.0 0.00 0.01 0.01 86 1016.3
20190422133104 56 338 4.3 8.7 0.00 0.01 0.01 86 1016.5
20190422131634 55 355 3.5 7.0 0.00 0.01 0.01 86 1016.8
20190422130105 55 38 3.5 7.0 0.00 0.01 0.01 85 1017.3
20190422123106 53 339 3.5 7.8 0.00 0.02 0.01 86 1017.2
20190422121550 52 355 3.5 6.1 0.00 0.02 0.01 86 1017.5
20190422120140 51 55 1.7 7.0 0.00 0.02 0.01 86 1017.6
20190422114608 51 29 3.5 6.1 0.00 0.05 0.01 86 1017.8
20190422113108 50 20 2.6 6.1 0.00 0.05 0.01 86 1017.8
20190422111620 50 32 1.7 4.3 0.00 0.05 0.01 86 1017.6
20190422110135 49 297 0.0 1.7 0.00 0.05 0.01 86 1017.6
20190422104556 49 297 0.0 1.7 0.00 0.06 0.01 86 1017.6
20190422103152 49 315 0.9 2.6 0.00 0.06 0.01 86 1017.2
20190422101627 49 345 0.0 3.5 0.00 0.06 0.01 86 1017.2
20190422100120 49 341 0.9 2.6 0.00 0.06 0.01 86 1017.1
20190422094626 49 319 0.9 2.6 0.00 0.06 0.01 86 1017.1
20190422093101 49 293 0.9 2.6 0.00 0.06 0.01 86 1017.2
20190422090044 49 347 1.7 3.5 0.00 0.06 0.01 86 1017.1
20190422084605 49 326 0.0 1.7 0.01 0.06 0.01 86 1017.1
20190422083129 49 324 0.9 3.5 0.01 0.06 0.01 86 1017.1
20190422081611 49 345 0.0 2.6 0.01 0.06 0.01 86 1017.5
20190422080106 49 171 0.9 2.6 0.01 0.06 0.01 86 1017.7